Hourly Data Report for September 10, 2017

All times are specified in Local Standard Time (LST). Add 1 hour to adjust for Daylight Saving Time where and when it is observed.

MONCTON INTL A
NEW BRUNSWICK

46°06'44.000" N
64°40'43.000" W
70.70 m
8103201
71705
YQM

Download Data

Hourly Data (September 2017)
Hourly Data Report for September 10, 2017
Temp Definition
°C
Dew Point Temp Definition
°C
Rel Hum Definition
%
Wind Dir Definition
10's deg

Wind Spd Definition
km/h
Visibility Definition
km
Stn Press Definition
kPa
Hmdx Definition


Wind Chill Definition


Weather Definition


TIME
00:00 Legend Double Dagger 13.1 12.1 93 36 16 24.1 101.46     LegendNANA
01:00 Legend Double Dagger 12.8 12.2 96 34 16 24.1 101.46     LegendNANA
02:00 Legend Double Dagger 13.3 12.0 92 35 15 24.1 101.43     Mostly Cloudy
03:00 Legend Double Dagger 13.0 11.5 91 35 12 24.1 101.41     LegendNANA
04:00 Legend Double Dagger 11.2 9.9 92 35 10 24.1 101.44     LegendNANA
05:00 Legend Double Dagger 11.5 10.4 93 35 9 24.1 101.51     Mostly Cloudy
06:00 Legend Double Dagger 11.0 9.9 93 33 9 24.1 101.54     LegendNANA
07:00 Legend Double Dagger 11.4 10.3 93 33 9 24.1 101.58     LegendNANA
08:00 Legend Double Dagger 12.5 10.7 89 34 16 24.1 101.57     Mostly Cloudy
09:00 Legend Double Dagger 13.3 10.7 84 36 17 24.1 101.57     LegendNANA
10:00 Legend Double Dagger 16.2 10.8 70 2 22 24.1 101.57     LegendNANA
11:00 Legend Double Dagger 17.2 10.8 65 3 17 24.1 101.53     Mostly Cloudy
12:00 Legend Double Dagger 17.3 9.5 60 35 21 24.1 101.47     LegendNANA
13:00 Legend Double Dagger 18.5 9.1 54 1 17 24.1 101.41     LegendNANA
14:00 Legend Double Dagger 18.9 7.9 48 1 19 24.1 101.35     Mainly Clear
15:00 Legend Double Dagger 18.9 8.1 49 36 18 24.1 101.27     LegendNANA
16:00 Legend Double Dagger 18.5 7.3 48 1 14 24.1 101.24     LegendNANA
17:00 Legend Double Dagger 15.1 6.7 57 36 11 24.1 101.24     Mainly Clear
18:00 Legend Double Dagger 13.2 7.2 67 1 6 24.1 101.22     LegendNANA
19:00 Legend Double Dagger 12.8 7.6 70 33 7 24.1 101.22     LegendNANA
20:00 Legend Double Dagger 12.9 8.0 72 31 8 24.1 101.24     Mostly Cloudy
21:00 Legend Double Dagger 12.3 8.7 78 28 7 24.1 101.21     LegendNANA
22:00 Legend Double Dagger 11.9 8.9 82 22 9 24.1 101.15     LegendNANA
23:00 Legend Double Dagger 12.2 8.6 78 28 7 24.1 101.12     Mostly Cloudy

Notes on Data Quality.

Legend

  • E = Estimated
  • M = Missing
  • NA = Not Available
  • ‡ = Partner data that is not subject to review by the National Climate Archives
Date modified: